Weather Roundup
Issued by NWS Chicago, IL

Home | Current Version | Previous Version | Graphics & Text | Print | Product List | Glossary On
Versions: 1 2 3 4 5 6 7 8 9 10 11 12 13 14 15 16 17 18 19 20 21 22 23 24 25 26 27 28 29 30 31 32 33 34 35 36 37 38 39 40 41 42 43 44 45 46 47 48 49 50
000
NZUS59 KLOT 140808
HRRLOT

CHICAGO AREA WEATHER ROUNDUP
NATIONAL WEATHER SERVICE CHICAGO/ROMEOVILLE IL
200 AM CST THU DEC 14 2017

NOTE: "FAIR" INDICATES FEW OR NO CLOUDS BELOW 12,000 FEET WITH NO
SIGNIFICANT WEATHER AND/OR OBSTRUCTIONS TO VISIBILITY.

* THESE STATIONS ARE NOT UNDER NWS QUALITY CONTROL. THEY ALSO MAY NOT
  REPORT WEATHER SUCH AS PRECIPITATION OR FOG.

ILZ005-006-012>014-019>023-140900-
NORTHEAST ILLINOIS

CITY           SKY/WX    TMP DP  RH WIND       PRES   REMARKS
OHARE          PTCLDY    23  15  71 N15       29.87R WCI  10
MIDWAY         FLURRIES  26  20  77 N15       29.87R WCI  14
AURORA         CLEAR     20  16  84 NW14      29.90R WCI   7
LANSING*       FLURRIES  28  23  82 NW13G18   29.85R WCI  17
JOLIET*        CLOUDY    27  20  75 NW10      29.89R WCI  17
WAUKEGAN       CLEAR     17  10  74 NW7G17    29.87R WCI   8
DUPAGE AIRPORT PTCLDY    21  16  81 N14       29.88R WCI   8
WHEELING       CLEAR     22  15  75 NW14      29.89R WCI   9
KANKAKEE*      CLOUDY    29  19  65 N12       29.87R WCI  19
MORRIS*        PTCLDY    23  17  77 N8        29.89R WCI  14
LEWIS AIRPORT* CLOUDY    25  19  77 NW12      29.89R WCI  14
$$

WIZ051-052-058>065-066-070>072-140900-
SOUTHEAST WISCONSIN

CITY           SKY/WX    TMP DP  RH WIND       PRES   REMARKS
MILWAUKEE      CLEAR     17  10  74 NW9       29.88R WCI   6
KENOSHA*       CLEAR     16   8  71 NW10      29.87R WCI   4
RACINE*        CLEAR     17  10  74 NW8       29.89R WCI   7
BURLINGTON     CLEAR     14  11  90 N7        29.90R WCI   3
WAUKESHA       CLEAR     10   7  85 NW8       29.90R WCI  -1
WEST BEND      CLEAR     10   9  92 NW7       29.89R WCI   0
$$

INZ001>003-010>013-019-020-140900-
NORTHWEST INDIANA

CITY           SKY/WX    TMP DP  RH WIND       PRES   REMARKS
GARY*          CLOUDY    32  21  65 NW18G24   29.85R WCI  20
MICHIGAN CITY* NOT AVBL
RENSSELAER*    NOT AVBL
VALPARAISO     CLOUDY    29  19  66 N14G21    29.82R WCI  18
$$

LMZ740>746-140900-
SOUTHERN LAKE MICHIGAN

STATION/POSITION TIME  SKY/WX   TEMP WIND        PRES    VSBY
                                AIR  DIR/SP/G
                 (UTC)          (F)  (DEG/KT/KT) (MB)    (MI)
HARRISON CRIB    0740            27  330/ 27/ 32   N/A
BURNHAM HARBOR   0800            26  310/ 15/ 21   N/A
CALUMET HARBOR   0748            26  320/ 12/ 17 1010.2R
BURNS HARBOR     0740            30   20/ 23/ 29 1010.5R
MICHIGAN CITY    0740            29  360/ 28/ 31   N/A
$$

ABBREVIATIONS USED IN REMARKS
   TC - TEMPERATURE IN CELSIUS
  WCI - WIND CHILL INDEX
   HX - HEAT INDEX
  VSB - VISIBILITY
$$




USA.gov is the U.S. government's official web portal to all federal, state and local government web resources and services.